,,PA_Meas_PMT16A,,PR_Meas_QMR101_102,,RH_Meas_QMH101,,SR_Meas_QMS101,,TA_Meas_QMH101,,GenWind,,GenWind,
time,status,PA,status,PR,status,RH,status,SR,status,TA,status,DirAvg,status,SpdAvg,
2016-07-15, 11:07:04,VALID,918.48,VALID,0,INVALID,114.832,VALID,76.6055,VALID,20.2504,VALID,124,VALID,0,
2016-07-15, 11:08:04,VALID,918.478,VALID,0,INVALID,114.938,VALID,77.68,VALID,20.2504,VALID,92,VALID,0,
2016-07-15, 11:09:04,VALID,918.457,VALID,0,INVALID,114.9,VALID,78.6469,VALID,20.2699,VALID,92,VALID,0,
2016-07-15, 11:10:04,VALID,918.432,VALID,0,INVALID,114.908,VALID,79.5065,VALID,20.2894,VALID,92,VALID,0,
2016-07-15, 11:11:04,VALID,918.408,VALID,0,INVALID,114.938,VALID,80.4734,VALID,20.3089,VALID,92,VALID,0,
2016-07-15, 11:12:04,VALID,918.407,VALID,0.2,INVALID,115.06,VALID,81.9776,VALID,20.2504,VALID,92,VALID,0,
2016-07-15, 11:13:04,VALID,918.342,VALID,0,INVALID,114.992,VALID,84.019,VALID,20.2699,VALID,92,VALID,0,
2016-07-15, 11:14:04,VALID,918.324,VALID,0.2,INVALID,115.022,VALID,85.8455,VALID,20.2504,VALID,88,VALID,0,
2016-07-15, 11:15:04,VALID,918.354,VALID,0,INVALID,115.213,VALID,87.3497,VALID,20.1513,VALID,83,VALID,0,
2016-07-15, 11:16:04,VALID,918.363,VALID,0,INVALID,115.144,VALID,88.3166,VALID,20.1724,VALID,67,VALID,0,
2016-07-15, 11:17:04,VALID,918.332,VALID,0,INVALID,115.053,VALID,88.7464,VALID,20.1919,VALID,78,VALID,0,
2016-07-15, 11:18:04,VALID,918.361,VALID,0,INVALID,114.931,VALID,88.8538,VALID,20.2309,VALID,69,VALID,0,
2016-07-15, 11:19:04,VALID,918.334,VALID,0,INVALID,114.915,VALID,88.1017,VALID,20.2504,VALID,107,VALID,0,
2016-07-15, 11:20:04,VALID,918.297,VALID,0,INVALID,114.847,VALID,87.7794,VALID,20.2714,VALID,77,VALID,0,
2016-07-15, 11:21:04,VALID,918.225,VALID,0,INVALID,114.755,VALID,88.7464,VALID,20.3089,VALID,77,VALID,0,
2016-07-15, 11:22:04,VALID,918.155,VALID,0,INVALID,114.771,VALID,90.0357,VALID,20.3089,VALID,77,VALID,0,
2016-07-15, 11:23:04,VALID,918.144,VALID,0.2,INVALID,114.763,VALID,91.325,VALID,20.2894,VALID,100,VALID,0,
2016-07-15, 11:24:04,VALID,918.12,VALID,0,INVALID,114.87,VALID,92.7217,VALID,20.2309,VALID,100,VALID,0,
2016-07-15, 11:25:04,VALID,918.095,VALID,0,INVALID,114.893,VALID,94.011,VALID,20.2114,VALID,100,VALID,0,
2016-07-15, 11:26:04,VALID,918.084,VALID,0,INVALID,114.839,VALID,95.5152,VALID,20.2309,VALID,174,VALID,0,
2016-07-15, 11:27:04,VALID,918.096,VALID,0,INVALID,114.748,VALID,97.4491,VALID,20.2293,VALID,174,VALID,0,
2016-07-15, 11:28:04,VALID,918.065,VALID,0,INVALID,114.664,VALID,100.35,VALID,20.2894,VALID,170,VALID,0,
2016-07-15, 11:29:04,VALID,918.037,VALID,0,INVALID,114.687,VALID,103.896,VALID,20.3089,VALID,162,VALID,0,
2016-07-15, 11:30:04,VALID,917.986,VALID,0.2,INVALID,114.58,VALID,107.441,VALID,20.3284,VALID,162,VALID,0,
2016-07-15, 11:31:04,VALID,917.97,VALID,0,INVALID,114.58,VALID,111.416,VALID,20.3284,VALID,155,VALID,0,
2016-07-15, 11:32:04,VALID,917.945,VALID,0,INVALID,114.496,VALID,115.177,VALID,20.3869,VALID,156,VALID,0,
2016-07-15, 11:33:04,VALID,917.917,VALID,0,INVALID,114.466,VALID,118.83,VALID,20.3869,VALID,174,VALID,0,
2016-07-15, 11:34:04,VALID,917.907,VALID,0,INVALID,114.496,VALID,122.483,VALID,20.3869,VALID,174,VALID,0,
2016-07-15, 11:35:04,VALID,917.871,VALID,0,INVALID,114.511,VALID,126.028,VALID,20.3674,VALID,174,VALID,0,
2016-07-15, 11:36:04,VALID,917.895,VALID,0,INVALID,114.473,VALID,128.822,VALID,20.3869,VALID,174,VALID,0,
2016-07-15, 11:37:04,VALID,917.857,VALID,0,INVALID,114.549,VALID,131.83,VALID,20.3464,VALID,174,VALID,0,
2016-07-15, 11:38:04,VALID,917.832,VALID,0,INVALID,114.687,VALID,135.054,VALID,20.3089,VALID,173,VALID,0,
2016-07-15, 11:39:04,VALID,917.818,VALID,0,INVALID,114.801,VALID,138.169,VALID,20.2699,VALID,169,VALID,0,
2016-07-15, 11:40:04,VALID,917.808,VALID,0.2,INVALID,114.763,VALID,140.748,VALID,20.3089,VALID,169,VALID,0,
2016-07-15, 11:41:04,VALID,917.802,VALID,0,INVALID,114.816,VALID,143.326,VALID,20.3089,VALID,169,VALID,0,
2016-07-15, 11:42:04,VALID,917.796,VALID,0,INVALID,114.893,VALID,146.55,VALID,20.3089,VALID,169,VALID,0,
2016-07-15, 11:43:04,VALID,917.782,VALID,0,INVALID,115.083,VALID,150.525,VALID,20.2309,VALID,169,VALID,0,
2016-07-15, 11:44:04,VALID,917.75,VALID,0,INVALID,115.22,VALID,155.252,VALID,20.1903,VALID,169,VALID,0,
2016-07-15, 11:45:04,VALID,917.75,VALID,0,INVALID,115.289,VALID,161.269,VALID,20.2114,VALID,158,VALID,0,
2016-07-15, 11:46:04,VALID,917.707,VALID,0,INVALID,115.403,VALID,167.501,VALID,20.1529,VALID,158,VALID,0,
2016-07-15, 11:47:04,VALID,917.676,VALID,0,INVALID,115.312,VALID,174.27,VALID,20.2504,VALID,160,VALID,0,
2016-07-15, 11:48:04,VALID,917.623,VALID,0,INVALID,115.289,VALID,180.931,VALID,20.3089,VALID,160,VALID,0,
2016-07-15, 11:49:04,VALID,917.57,VALID,0,INVALID,115.297,VALID,21.8106,VALID,20.3479,VALID,160,VALID,0,
2016-07-15, 11:50:04,VALID,917.545,VALID,0,INVALID,115.266,VALID,193.179,VALID,20.4454,VALID,160,VALID,0,
2016-07-15, 11:51:04,VALID,917.51,VALID,0,INVALID,115.236,VALID,198.551,VALID,20.543,VALID,160,VALID,0.025,
2016-07-15, 11:52:04,VALID,917.495,VALID,0,INVALID,115.236,VALID,203.171,VALID,20.6405,VALID,160,VALID,0.407422,
2016-07-15, 11:53:04,VALID,917.463,VALID,0,INVALID,115.289,VALID,208.866,VALID,20.66,VALID,160,VALID,0.398828,
2016-07-15, 11:54:04,VALID,917.43,VALID,0,INVALID,115.289,VALID,215.849,VALID,20.678,VALID,160,VALID,0.471484,
2016-07-15, 11:55:04,VALID,917.377,VALID,0,INVALID,115.297,VALID,223.8,VALID,20.7365,VALID,160,VALID,0.0890625,
2016-07-15, 11:56:04,VALID,917.315,VALID,0,INVALID,115.358,VALID,230.891,VALID,20.717,VALID,160,VALID,0.471875,
2016-07-15, 11:57:04,VALID,917.286,VALID,0,INVALID,115.304,VALID,236.371,VALID,20.6585,VALID,160,VALID,0.409375,
2016-07-15, 11:58:04,VALID,917.257,VALID,0,INVALID,115.197,VALID,240.668,VALID,20.699,VALID,160,VALID,0,
2016-07-15, 11:59:04,VALID,917.246,VALID,0,INVALID,115.053,VALID,244.321,VALID,20.7576,VALID,157,VALID,0,
2016-07-15, 12:00:04,VALID,917.201,VALID,0,INVALID,115.129,VALID,246.9,VALID,20.834,VALID,158,VALID,0,
2016-07-15, 12:01:04,VALID,917.181,VALID,0,INVALID,115.068,VALID,249.263,VALID,20.7771,VALID,153,VALID,0,
2016-07-15, 12:02:04,VALID,917.143,VALID,0,INVALID,115.106,VALID,250.338,VALID,20.8762,VALID,120,VALID,0,
2016-07-15, 12:03:04,VALID,917.117,VALID,0,INVALID,115.197,VALID,250.983,VALID,20.9136,VALID,159,VALID,0,
2016-07-15, 12:04:04,VALID,917.09,VALID,0,INVALID,115.136,VALID,251.305,VALID,20.8941,VALID,163,VALID,0,
2016-07-15, 12:05:04,VALID,917.072,VALID,0,INVALID,115.205,VALID,251.305,VALID,20.9511,VALID,183,VALID,0,
2016-07-15, 12:06:04,VALID,917.018,VALID,0,INVALID,115.136,VALID,250.768,VALID,20.9105,VALID,187,VALID,0,
2016-07-15, 12:07:04,VALID,917.026,VALID,0,INVALID,115.06,VALID,249.908,VALID,20.9105,VALID,177,VALID,0,
2016-07-15, 12:08:04,VALID,917,VALID,0,INVALID,114.854,VALID,248.619,VALID,20.8324,VALID,137,VALID,0,
2016-07-15, 12:09:04,VALID,916.971,VALID,0,INVALID,115.022,VALID,246.363,VALID,20.9511,VALID,138,VALID,0,
2016-07-15, 12:10:04,VALID,916.945,VALID,0,INVALID,115.121,VALID,243.032,VALID,20.9495,VALID,137,VALID,0,
2016-07-15, 12:11:04,VALID,916.924,VALID,0,INVALID,115.197,VALID,239.594,VALID,21.0096,VALID,158,VALID,0,
2016-07-15, 12:12:04,VALID,916.914,VALID,0,INVALID,114.9,VALID,236.048,VALID,20.912,VALID,159,VALID,0,
2016-07-15, 12:13:04,VALID,916.882,VALID,0,INVALID,114.633,VALID,232.61,VALID,20.9511,VALID,158,VALID,0,
2016-07-15, 12:14:04,VALID,916.875,VALID,0,INVALID,114.74,VALID,229.709,VALID,21.0096,VALID,155,VALID,0,
2016-07-15, 12:15:04,VALID,916.835,VALID,0,INVALID,114.435,VALID,227.345,VALID,21.0096,VALID,155,VALID,0,
2016-07-15, 12:16:04,VALID,916.826,VALID,0,INVALID,114.176,VALID,224.982,VALID,21.0291,VALID,155,VALID,0,
2016-07-15, 12:17:04,VALID,916.769,VALID,0,INVALID,112.438,VALID,222.618,VALID,20.912,VALID,155,VALID,0,
2016-07-15, 12:18:04,VALID,916.751,VALID,0,INVALID,112.095,VALID,221.221,VALID,20.9316,VALID,155,VALID,0,
2016-07-15, 12:19:04,VALID,916.709,VALID,0,INVALID,111.82,VALID,221.006,VALID,20.9706,VALID,155,VALID,0,
2016-07-15, 12:20:04,VALID,916.686,VALID,0,INVALID,110.745,VALID,221.329,VALID,20.9511,VALID,155,VALID,0,
2016-07-15, 12:21:04,VALID,916.689,VALID,0,INVALID,110.364,VALID,221.221,VALID,20.9511,VALID,155,VALID,0,
2016-07-15, 12:22:04,VALID,916.644,VALID,0,INVALID,111.348,VALID,220.254,VALID,20.9901,VALID,155,VALID,0,
2016-07-15, 12:23:04,VALID,916.607,VALID,0,INVALID,111.424,VALID,219.395,VALID,21.0291,VALID,155,VALID,0,
2016-07-15, 12:24:04,VALID,916.602,VALID,0,INVALID,111.218,VALID,218.75,VALID,21.0291,VALID,155,VALID,0,
2016-07-15, 12:25:04,VALID,916.572,VALID,0,INVALID,111.119,VALID,219.502,VALID,21.0291,VALID,155,VALID,0,
2016-07-15, 12:26:04,VALID,916.54,VALID,0,INVALID,111.492,VALID,218.213,VALID,21.0486,VALID,155,VALID,0,
2016-07-15, 12:27:04,VALID,916.573,VALID,0,INVALID,112.796,VALID,215.097,VALID,21.1657,VALID,190,VALID,0,
2016-07-15, 12:28:04,VALID,916.558,VALID,0,INVALID,113.993,VALID,211.014,VALID,21.2047,VALID,190,VALID,0,
2016-07-15, 12:29:04,VALID,916.551,VALID,0,INVALID,114.153,VALID,207.469,VALID,21.1852,VALID,190,VALID,0,
2016-07-15, 12:30:04,VALID,916.559,VALID,0,INVALID,113.703,VALID,204.89,VALID,21.1461,VALID,190,VALID,0,
2016-07-15, 12:31:04,VALID,916.545,VALID,0,INVALID,113.604,VALID,204.675,VALID,21.1461,VALID,190,VALID,0,
2016-07-15, 12:32:04,VALID,916.558,VALID,0,INVALID,113.65,VALID,205.535,VALID,21.1055,VALID,197,VALID,0,
2016-07-15, 12:33:04,VALID,916.556,VALID,0,INVALID,113.871,VALID,206.824,VALID,21.1445,VALID,197,VALID,0,
2016-07-15, 12:34:04,VALID,916.549,VALID,0,INVALID,113.597,VALID,207.791,VALID,21.1445,VALID,197,VALID,0,
2016-07-15, 12:35:04,VALID,916.527,VALID,0,INVALID,113.696,VALID,207.899,VALID,21.2047,VALID,197,VALID,0,
2016-07-15, 12:36:04,VALID,916.567,VALID,0,INVALID,113.856,VALID,206.502,VALID,21.2632,VALID,197,VALID,0,
2016-07-15, 12:37:04,VALID,916.558,VALID,0,INVALID,114.13,VALID,204.031,VALID,21.3201,VALID,197,VALID,0,
2016-07-15, 12:38:04,VALID,916.548,VALID,0,INVALID,113.863,VALID,200.593,VALID,21.3412,VALID,197,VALID,0,
2016-07-15, 12:39:04,VALID,916.537,VALID,0,INVALID,112.56,VALID,197.155,VALID,21.3217,VALID,197,VALID,0,
2016-07-15, 12:40:04,VALID,916.533,VALID,0,INVALID,111.828,VALID,193.609,VALID,21.2811,VALID,217,VALID,0,
2016-07-15, 12:41:04,VALID,916.512,VALID,0,INVALID,111.05,VALID,188.882,VALID,21.2226,VALID,219,VALID,0,
2016-07-15, 12:42:04,VALID,916.521,VALID,0,INVALID,111.127,VALID,182.328,VALID,21.2031,VALID,218,VALID,0,
2016-07-15, 12:43:04,VALID,916.501,VALID,0,INVALID,111.782,VALID,174.592,VALID,21.2421,VALID,218,VALID,0,
2016-07-15, 12:44:04,VALID,916.506,VALID,0,INVALID,112.415,VALID,167.931,VALID,21.2811,VALID,218,VALID,0,
2016-07-15, 12:45:04,VALID,916.48,VALID,0,INVALID,112.964,VALID,163.096,VALID,21.3396,VALID,202,VALID,0.103516,
2016-07-15, 12:46:04,VALID,916.511,VALID,0,INVALID,113.314,VALID,162.021,VALID,21.3608,VALID,191,VALID,0.158984,
2016-07-15, 12:47:04,VALID,916.468,VALID,0,INVALID,113.658,VALID,164.492,VALID,21.3396,VALID,181,VALID,0,
2016-07-15, 12:48:04,VALID,916.479,VALID,0,INVALID,114.008,VALID,166.856,VALID,21.3396,VALID,222,VALID,0,
2016-07-15, 12:49:04,VALID,916.471,VALID,0,INVALID,114.237,VALID,168.897,VALID,21.3591,VALID,180,VALID,0.737891,
2016-07-15, 12:50:04,VALID,916.455,VALID,0,INVALID,113.856,VALID,170.402,VALID,21.3217,VALID,181,VALID,1.2125,
2016-07-15, 12:51:04,VALID,916.436,VALID,0,INVALID,113.886,VALID,172.873,VALID,21.3217,VALID,180,VALID,0.0335938,
2016-07-15, 12:52:04,VALID,916.415,VALID,0,INVALID,114.092,VALID,178.137,VALID,21.3217,VALID,183,VALID,0.44375,
2016-07-15, 12:53:04,VALID,916.375,VALID,0,INVALID,113.962,VALID,184.476,VALID,21.2632,VALID,198,VALID,0.841016,
2016-07-15, 12:54:04,VALID,916.386,VALID,0,INVALID,114.084,VALID,190.171,VALID,21.3038,VALID,188,VALID,1.26016,
2016-07-15, 12:55:04,VALID,916.382,VALID,0,INVALID,113.97,VALID,194.791,VALID,21.2616,VALID,229,VALID,0.151172,
2016-07-15, 12:56:04,VALID,916.385,VALID,0,INVALID,113.467,VALID,203.601,VALID,21.2632,VALID,202,VALID,1.21133,
2016-07-15, 12:57:04,VALID,916.369,VALID,0,INVALID,112.575,VALID,215.42,VALID,21.2437,VALID,220,VALID,1.18906,
2016-07-15, 12:58:04,VALID,916.349,VALID,0,INVALID,112.438,VALID,227.668,VALID,21.2632,VALID,217,VALID,0,
2016-07-15, 12:59:04,VALID,916.342,VALID,0,INVALID,113.452,VALID,238.519,VALID,21.3412,VALID,178,VALID,0.00351562,
2016-07-15, 13:00:04,VALID,916.349,VALID,0,INVALID,113.421,VALID,247.437,VALID,21.3412,VALID,177,VALID,0,
2016-07-15, 13:01:04,VALID,916.323,VALID,0,INVALID,112.415,VALID,257.107,VALID,21.3022,VALID,190,VALID,0,
2016-07-15, 13:02:04,VALID,916.314,VALID,0,INVALID,112.003,VALID,264.95,VALID,21.3412,VALID,186,VALID,0,
2016-07-15, 13:03:04,VALID,916.274,VALID,0,INVALID,112.041,VALID,270.107,VALID,21.3608,VALID,185,VALID,0.694922,
2016-07-15, 13:04:04,VALID,916.268,VALID,0,INVALID,111.973,VALID,274.405,VALID,21.3608,VALID,182,VALID,1.15898,
2016-07-15, 13:05:04,VALID,916.268,VALID,0,INVALID,111.782,VALID,278.165,VALID,21.3608,VALID,172,VALID,1.2582,
2016-07-15, 13:06:04,VALID,916.223,VALID,0,INVALID,111.622,VALID,281.066,VALID,21.3608,VALID,169,VALID,1.08711,
2016-07-15, 13:07:04,VALID,916.253,VALID,0,INVALID,112.217,VALID,283.645,VALID,21.4583,VALID,188,VALID,0,
2016-07-15, 13:08:04,VALID,916.24,VALID,0,INVALID,112.438,VALID,285.901,VALID,21.5168,VALID,175,VALID,0,
2016-07-15, 13:09:04,VALID,916.208,VALID,0,INVALID,112.888,VALID,288.265,VALID,21.5949,VALID,187,VALID,0,
2016-07-15, 13:10:04,VALID,916.196,VALID,0,INVALID,113.322,VALID,290.199,VALID,21.6534,VALID,181,VALID,0,
2016-07-15, 13:11:04,VALID,916.183,VALID,0,INVALID,112.514,VALID,291.273,VALID,21.6729,VALID,184,VALID,0,
2016-07-15, 13:12:04,VALID,916.142,VALID,0,INVALID,112.079,VALID,296.645,VALID,21.6729,VALID,160,VALID,0,
2016-07-15, 13:13:04,VALID,916.156,VALID,0,INVALID,111.515,VALID,302.339,VALID,21.6323,VALID,171,VALID,0,
2016-07-15, 13:14:04,VALID,916.135,VALID,0,INVALID,111.066,VALID,305.133,VALID,21.6729,VALID,209,VALID,0,
2016-07-15, 13:15:04,VALID,916.111,VALID,0,INVALID,111.271,VALID,307.819,VALID,21.751,VALID,197,VALID,0,
2016-07-15, 13:16:04,VALID,916.094,VALID,0,INVALID,110.783,VALID,310.29,VALID,21.8095,VALID,195,VALID,0,
2016-07-15, 13:17:04,VALID,916.081,VALID,0,VALID,104,VALID,312.009,VALID,21.7883,VALID,237,VALID,0,
2016-07-15, 13:18:04,VALID,916.037,VALID,0,INVALID,109.526,VALID,311.794,VALID,21.8469,VALID,191,VALID,0,
2016-07-15, 13:19:04,VALID,916.075,VALID,0,VALID,104,VALID,310.397,VALID,21.8859,VALID,187,VALID,0,
2016-07-15, 13:20:04,VALID,916.037,VALID,0,VALID,104,VALID,310.612,VALID,21.9444,VALID,195,VALID,0,
2016-07-15, 13:21:04,VALID,916.011,VALID,0,VALID,104,VALID,311.042,VALID,21.964,VALID,237,VALID,0,
2016-07-15, 13:22:04,VALID,916.001,VALID,0,VALID,104,VALID,311.15,VALID,22.003,VALID,195,VALID,0,
2016-07-15, 13:23:04,VALID,915.974,VALID,0,VALID,104,VALID,310.935,VALID,22.042,VALID,195,VALID,0,
2016-07-15, 13:24:04,VALID,915.933,VALID,0,VALID,102.908,VALID,311.042,VALID,22.0225,VALID,175,VALID,0,
2016-07-15, 13:25:04,VALID,915.89,VALID,0,VALID,103.175,VALID,311.15,VALID,21.964,VALID,173,VALID,0,
2016-07-15, 13:26:04,VALID,915.83,VALID,0,VALID,104,VALID,310.612,VALID,21.9851,VALID,173,VALID,0,
2016-07-15, 13:27:04,VALID,915.861,VALID,0,VALID,103.229,VALID,309.538,VALID,21.9835,VALID,173,VALID,0,
2016-07-15, 13:28:04,VALID,915.785,VALID,0,VALID,104,VALID,308.571,VALID,22.0208,VALID,56,VALID,0,
2016-07-15, 13:29:04,VALID,915.771,VALID,0,VALID,104,VALID,308.034,VALID,22.1201,VALID,39,VALID,0,
2016-07-15, 13:30:04,VALID,915.776,VALID,0,VALID,102.55,VALID,307.926,VALID,22.1396,VALID,39,VALID,0,
2016-07-15, 13:31:04,VALID,915.748,VALID,0,VALID,101.003,VALID,309.431,VALID,22.1201,VALID,96,VALID,0,
2016-07-15, 13:32:04,VALID,915.725,VALID,0,VALID,103.564,VALID,311.472,VALID,22.0794,VALID,96,VALID,0,
2016-07-15, 13:33:04,VALID,915.691,VALID,0,VALID,104,VALID,313.728,VALID,22.1769,VALID,96,VALID,0,
2016-07-15, 13:34:04,VALID,915.693,VALID,0,VALID,104,VALID,314.695,VALID,22.1964,VALID,95,VALID,0,
2016-07-15, 13:35:04,VALID,915.681,VALID,0,VALID,104,VALID,314.91,VALID,22.255,VALID,63,VALID,0,
2016-07-15, 13:36:04,VALID,915.69,VALID,0,VALID,104,VALID,318.026,VALID,22.2371,VALID,76,VALID,0,
2016-07-15, 13:37:04,VALID,915.706,VALID,0,VALID,102.848,VALID,322.968,VALID,22.1591,VALID,70,VALID,0,
2016-07-15, 13:38:04,VALID,915.719,VALID,0,VALID,104,VALID,327.803,VALID,22.1769,VALID,59,VALID,0,
2016-07-15, 13:39:04,VALID,915.704,VALID,0,VALID,104,VALID,332.745,VALID,22.1964,VALID,57,VALID,0,
2016-07-15, 13:40:04,VALID,915.707,VALID,0,VALID,104,VALID,338.44,VALID,22.3347,VALID,58,VALID,0,
2016-07-15, 13:41:04,VALID,915.678,VALID,0,VALID,98.8681,VALID,361.432,VALID,22.3347,VALID,6,VALID,0,
2016-07-15, 13:42:04,VALID,915.69,VALID,0,VALID,104,VALID,405.805,VALID,22.3933,VALID,7,VALID,0,
2016-07-15, 13:43:04,VALID,915.669,VALID,0,VALID,104,VALID,411.392,VALID,22.4323,VALID,357,VALID,0,
2016-07-15, 13:44:04,VALID,915.659,VALID,0,VALID,104,VALID,422.781,VALID,22.5494,VALID,3,VALID,0,
2016-07-15, 13:45:04,VALID,915.634,VALID,0,VALID,104,VALID,426.219,VALID,22.6274,VALID,20,VALID,0,
2016-07-15, 13:46:04,VALID,915.646,VALID,0,VALID,104,VALID,512.709,VALID,22.7055,VALID,45,VALID,0,
2016-07-15, 13:47:04,VALID,915.673,VALID,0,VALID,104,VALID,511.957,VALID,22.7623,VALID,13,VALID,0,
2016-07-15, 13:48:04,VALID,915.634,VALID,0,VALID,103.9,VALID,523.99,VALID,22.8209,VALID,306,VALID,0,
2016-07-15, 13:49:04,VALID,915.592,VALID,0,VALID,102.39,VALID,493.8,VALID,22.9007,VALID,19,VALID,0,
2016-07-15, 13:50:04,VALID,915.568,VALID,0,VALID,104,VALID,473.171,VALID,22.977,VALID,54,VALID,0.508984,
2016-07-15, 13:51:04,VALID,915.6,VALID,0,VALID,85.245,VALID,433.525,VALID,22.9575,VALID,8,VALID,1.14766,
2016-07-15, 13:52:04,VALID,915.579,VALID,0,VALID,91.0846,VALID,436.963,VALID,22.8989,VALID,31,VALID,0,
2016-07-15, 13:53:04,VALID,915.564,VALID,0,VALID,89.1177,VALID,468.336,VALID,22.8794,VALID,46,VALID,2.23477,
2016-07-15, 13:54:04,VALID,915.585,VALID,0,VALID,92.8685,VALID,441.261,VALID,23.0356,VALID,88,VALID,0,
2016-07-15, 13:55:04,VALID,915.574,VALID,0,VALID,83.3697,VALID,464.683,VALID,23.1722,VALID,115,VALID,0,
2016-07-15, 13:56:04,VALID,915.584,VALID,0,VALID,83.6594,VALID,469.733,VALID,23.2893,VALID,174,VALID,0,
2016-07-15, 13:57:04,VALID,915.557,VALID,0,VALID,86.7621,VALID,465.328,VALID,23.4259,VALID,13,VALID,0.736328,
2016-07-15, 13:58:04,VALID,915.594,VALID,0,VALID,79.497,VALID,527.751,VALID,23.4437,VALID,45,VALID,0,
2016-07-15, 13:59:04,VALID,915.575,VALID,0,VALID,85.893,VALID,449.856,VALID,23.4064,VALID,51,VALID,0,
2016-07-15, 14:00:04,VALID,915.586,VALID,0,VALID,91.2599,VALID,491.328,VALID,23.5022,VALID,47,VALID,0,
2016-07-15, 14:01:04,VALID,915.568,VALID,0,VALID,84.2235,VALID,586.091,VALID,23.6406,VALID,323,VALID,0,
2016-07-15, 14:02:04,VALID,915.566,VALID,0,VALID,79.7638,VALID,434.062,VALID,23.5803,VALID,306,VALID,0,
2016-07-15, 14:03:04,VALID,915.574,VALID,0,VALID,77.8198,VALID,448.674,VALID,23.5998,VALID,334,VALID,0,
2016-07-15, 14:04:04,VALID,915.563,VALID,0,VALID,77.3624,VALID,462.427,VALID,23.6193,VALID,352,VALID,0,
2016-07-15, 14:05:04,VALID,915.582,VALID,0,VALID,77.37,VALID,482.303,VALID,23.6974,VALID,351,VALID,0,
2016-07-15, 14:06:04,VALID,915.534,VALID,0,VALID,77.7131,VALID,531.726,VALID,23.7773,VALID,351,VALID,0,
2016-07-15, 14:07:04,VALID,915.521,VALID,0,VALID,80.2441,VALID,521.519,VALID,23.9139,VALID,330,VALID,0,
2016-07-15, 14:08:04,VALID,915.561,VALID,0,VALID,79.5885,VALID,566.322,VALID,23.9707,VALID,228,VALID,0,
2016-07-15, 14:09:04,VALID,915.55,VALID,0,VALID,78.3611,VALID,659.796,VALID,24.1464,VALID,132,VALID,0,
2016-07-15, 14:10:04,VALID,915.517,VALID,0,VALID,79.8248,VALID,656.68,VALID,24.402,VALID,348,VALID,0,
2016-07-15, 14:11:04,VALID,915.52,VALID,0,VALID,79.5808,VALID,780.023,VALID,24.5173,VALID,328,VALID,0,
2016-07-15, 14:12:04,VALID,915.529,VALID,0,VALID,73.9166,VALID,847.496,VALID,24.3806,VALID,291,VALID,0.310937,
2016-07-15, 14:13:04,VALID,915.492,VALID,0,VALID,74.1377,VALID,804.949,VALID,24.3416,VALID,293,VALID,0,
2016-07-15, 14:14:04,VALID,915.496,VALID,0,VALID,74.092,VALID,780.56,VALID,24.5564,VALID,252,VALID,0,
2016-07-15, 14:15:04,VALID,915.521,VALID,0,VALID,73.2305,VALID,653.565,VALID,24.654,VALID,299,VALID,0,
2016-07-15, 14:16:04,VALID,915.496,VALID,0,VALID,72.5368,VALID,561.595,VALID,24.7302,VALID,316,VALID,0,
2016-07-15, 14:17:04,VALID,915.507,VALID,0,VALID,71.0045,VALID,544.082,VALID,24.8883,VALID,295,VALID,0,
2016-07-15, 14:18:04,VALID,915.52,VALID,0,VALID,72.0641,VALID,603.604,VALID,24.7302,VALID,285,VALID,0,
2016-07-15, 14:19:04,VALID,915.468,VALID,0,VALID,72.087,VALID,667.21,VALID,24.7888,VALID,341,VALID,0,
2016-07-15, 14:20:04,VALID,915.459,VALID,0,VALID,70.8901,VALID,489.072,VALID,24.8864,VALID,291,VALID,0,
2016-07-15, 14:21:04,VALID,915.439,VALID,0,VALID,70.7682,VALID,412.574,VALID,24.9059,VALID,293,VALID,0,
2016-07-15, 14:22:04,VALID,915.419,VALID,0,VALID,71.4314,VALID,316.414,VALID,24.945,VALID,16,VALID,0.233594,
2016-07-15, 14:23:04,VALID,915.445,VALID,0,VALID,72.9713,VALID,293.959,VALID,24.8474,VALID,10,VALID,0.294531,
2016-07-15, 14:24:04,VALID,915.411,VALID,0,VALID,71.9498,VALID,278.487,VALID,24.7107,VALID,4,VALID,0,
2016-07-15, 14:25:04,VALID,915.389,VALID,0,VALID,71.9498,VALID,266.132,VALID,24.654,VALID,4,VALID,0,
2016-07-15, 14:26:04,VALID,915.396,VALID,0,VALID,74.5951,VALID,286.868,VALID,24.5545,VALID,4,VALID,0,
2016-07-15, 14:27:04,VALID,915.404,VALID,0,VALID,75.5404,VALID,287.405,VALID,24.4569,VALID,2,VALID,1.425,
2016-07-15, 14:28:04,VALID,915.417,VALID,0,VALID,77.9571,VALID,359.391,VALID,24.2226,VALID,15,VALID,1.16094,
2016-07-15, 14:29:04,VALID,915.385,VALID,0,VALID,76.1579,VALID,348.109,VALID,24.0274,VALID,314,VALID,0,
2016-07-15, 14:30:04,VALID,915.379,VALID,0,VALID,78.2467,VALID,295.893,VALID,24.0079,VALID,39,VALID,0.480859,
2016-07-15, 14:31:04,VALID,915.377,VALID,0,VALID,76.9203,VALID,282.57,VALID,23.9884,VALID,14,VALID,0.217187,
2016-07-15, 14:32:04,VALID,915.353,VALID,0,VALID,79.5427,VALID,287.298,VALID,23.9493,VALID,34,VALID,0,
2016-07-15, 14:33:04,VALID,915.367,VALID,0,VALID,79.0701,VALID,260.008,VALID,24.0079,VALID,12,VALID,0,
2016-07-15, 14:34:04,VALID,915.309,VALID,0,VALID,77.9418,VALID,219.932,VALID,24.0274,VALID,2,VALID,0,
2016-07-15, 14:35:04,VALID,915.324,VALID,0,VALID,78.605,VALID,200.378,VALID,24.0274,VALID,15,VALID,0,
2016-07-15, 14:36:04,VALID,915.314,VALID,0,VALID,79.0243,VALID,194.361,VALID,24.0469,VALID,31,VALID,0,
2016-07-15, 14:37:04,VALID,915.295,VALID,0,VALID,79.1234,VALID,206.394,VALID,24.1055,VALID,32,VALID,0,
2016-07-15, 14:38:04,VALID,915.296,VALID,0,VALID,78.0485,VALID,240.346,VALID,24.1445,VALID,338,VALID,0,
2016-07-15, 14:39:04,VALID,915.299,VALID,0,VALID,77.8884,VALID,217.568,VALID,24.1641,VALID,32,VALID,0.269141,
2016-07-15, 14:40:04,VALID,915.303,VALID,0,VALID,78.5593,VALID,214.99,VALID,24.1836,VALID,22,VALID,0,
2016-07-15, 14:41:04,VALID,915.293,VALID,0,VALID,79.1006,VALID,224.982,VALID,24.2226,VALID,42,VALID,0,
2016-07-15, 14:42:04,VALID,915.274,VALID,0,VALID,78.5822,VALID,208.758,VALID,24.2617,VALID,23,VALID,0,
2016-07-15, 14:43:04,VALID,915.3,VALID,0,VALID,78.0028,VALID,214.13,VALID,24.2226,VALID,49,VALID,0.00585938,
2016-07-15, 14:44:04,VALID,915.294,VALID,0,VALID,77.5378,VALID,238.519,VALID,24.2617,VALID,24,VALID,0,
2016-07-15, 14:45:04,VALID,915.273,VALID,0,VALID,76.8821,VALID,211.337,VALID,24.2049,VALID,342,VALID,0,
2016-07-15, 14:46:04,VALID,915.249,VALID,0,VALID,78.6965,VALID,240.776,VALID,24.1073,VALID,3,VALID,0,
2016-07-15, 14:47:04,VALID,915.238,VALID,0,VALID,77.4158,VALID,316.199,VALID,24.0665,VALID,4,VALID,0,
2016-07-15, 14:48:04,VALID,915.239,VALID,0,VALID,80.3127,VALID,243.354,VALID,24.0274,VALID,26,VALID,0.00195313,
2016-07-15, 14:49:04,VALID,915.21,VALID,0,VALID,82.249,VALID,205.75,VALID,24.0469,VALID,30,VALID,0,
2016-07-15, 14:50:04,VALID,915.202,VALID,0,VALID,80.3737,VALID,219.502,VALID,24.1073,VALID,36,VALID,0.00078125,